| time (UTC) | temp F | wind direction | speed MPH | gust MPH | rain 1hr in | rain 24hr in | rain mn in | humidity % | barometer mb |
| 20260831063047 | 62 | 200 | 2.0 | 4.0 | 0.00 | 0.00 | 0.00 | 71 | 1014.5 |
| 20260831061546 | 63 | 244 | 1.0 | 3.0 | 0.00 | 0.00 | 0.00 | 71 | 1014.6 |
| 20260831060058 | 62 | 14 | 2.0 | 7.0 | 0.00 | 0.00 | 0.00 | 73 | 1014.7 |
| 20260831054544 | 60 | 5 | 1.0 | 4.0 | 0.00 | 0.00 | 0.00 | 76 | 1014.9 |
| 20260831053048 | 59 | 96 | 0.0 | 2.0 | 0.00 | 0.00 | 0.00 | 77 | 1015.1 |
| 20260831051543 | 59 | 236 | 0.0 | 3.0 | 0.00 | 0.00 | 0.00 | 77 | 1015.3 |
| 20260831050057 | 59 | 98 | 0.0 | 2.0 | 0.00 | 0.00 | 0.00 | 77 | 1015.4 |
| 20260831044537 | 59 | 5 | 0.0 | 1.0 | 0.00 | 0.00 | 0.00 | 77 | 1015.6 |
| 20260831043043 | 60 | 5 | 0.0 | 2.0 | 0.00 | 0.00 | 0.00 | 76 | 1015.6 |
| 20260831041551 | 60 | 5 | 0.0 | 2.0 | 0.00 | 0.00 | 0.00 | 75 | 1015.7 |
| 20260831040036 | 61 | 5 | 0.0 | 1.0 | 0.00 | 0.00 | 0.00 | 73 | 1015.7 |
| 20260831034539 | 62 | 5 | 0.0 | 2.0 | 0.00 | 0.00 | 0.00 | 72 | 1015.7 |
| 20260831033036 | 63 | 96 | 1.0 | 3.0 | 0.00 | 0.00 | 0.00 | 70 | 1015.6 |
| 20260831031540 | 65 | 38 | 0.0 | 1.0 | 0.00 | 0.00 | 0.00 | 68 | 1015.7 |
| 20260831030034 | 66 | 38 | 0.0 | 1.0 | 0.00 | 0.00 | 0.00 | 66 | 1015.8 |
| 20260831024531 | 67 | 319 | 0.0 | 2.0 | 0.00 | 0.00 | 0.00 | 64 | 1015.9 |
| 20260831023030 | 67 | 65 | 0.0 | 3.0 | 0.00 | 0.00 | 0.00 | 62 | 1016.0 |
| 20260831021531 | 68 | 323 | 1.0 | 12.0 | 0.00 | 0.00 | 0.00 | 60 | 1016.1 |
| 20260831020028 | 69 | 5 | 2.0 | 8.0 | 0.00 | 0.00 | 0.00 | 59 | 1016.2 |
| 20260831014526 | 69 | 5 | 3.0 | 9.0 | 0.00 | 0.00 | 0.00 | 58 | 1016.3 |
| 20260831013038 | 70 | 282 | 4.0 | 11.0 | 0.00 | 0.00 | 0.00 | 57 | 1016.4 |
| 20260831011523 | 70 | 307 | 2.0 | 8.0 | 0.00 | 0.00 | 0.00 | 56 | 1016.6 |
| 20260831010021 | 71 | 88 | 2.0 | 8.0 | 0.00 | 0.00 | 0.00 | 55 | 1016.8 |
| 20260831004521 | 72 | 355 | 2.0 | 8.0 | 0.00 | 0.00 | 0.00 | 54 | 1016.8 |
| 20260831003024 | 73 | 83 | 1.0 | 11.0 | 0.00 | 0.00 | 0.00 | 53 | 1016.8 |
| 20260831001524 | 74 | 69 | 3.0 | 8.0 | 0.00 | 0.00 | 0.00 | 51 | 1016.8 |
| 20260831000017 | 74 | 312 | 1.0 | 5.0 | 0.00 | 0.00 | 0.00 | 52 | 1016.7 |
| 20260830234515 | 74 | 18 | 2.0 | 11.0 | 0.00 | 0.00 | 0.00 | 52 | 1016.8 |
| 20260830233014 | 74 | 19 | 2.0 | 9.0 | 0.00 | 0.00 | 0.00 | 52 | 1017.0 |
| 20260830231512 | 74 | 112 | 3.0 | 10.0 | 0.00 | 0.00 | 0.00 | 52 | 1017.2 |
| 20260830230008 | 74 | 103 | 2.0 | 9.0 | 0.00 | 0.00 | 0.00 | 51 | 1017.5 |
| 20260830224513 | 74 | 194 | 2.0 | 7.0 | 0.00 | 0.00 | 0.00 | 51 | 1017.6 |
| 20260830223004 | 74 | 34 | 3.0 | 10.0 | 0.00 | 0.00 | 0.00 | 52 | 1017.9 |
| 20260830221502 | 74 | 355 | 0.0 | 6.0 | 0.00 | 0.00 | 0.00 | 51 | 1018.1 |
| 20260830220059 | 73 | 347 | 4.0 | 8.0 | 0.00 | 0.00 | 0.00 | 52 | 1018.3 |
| 20260830214559 | 73 | 291 | 3.0 | 10.0 | 0.00 | 0.00 | 0.00 | 51 | 1018.4 |
| 20260830213055 | 73 | 223 | 2.0 | 5.0 | 0.00 | 0.00 | 0.00 | 52 | 1018.6 |
| 20260830211553 | 72 | 88 | 1.0 | 11.0 | 0.00 | 0.00 | 0.00 | 52 | 1018.8 |
| 20260830210100 | 73 | 308 | 2.0 | 7.0 | 0.00 | 0.00 | 0.00 | 51 | 1018.9 |
| 20260830204549 | 72 | 242 | 3.0 | 9.0 | 0.00 | 0.00 | 0.00 | 53 | 1019.0 |
| 20260830203047 | 71 | 350 | 3.0 | 10.0 | 0.00 | 0.00 | 0.00 | 52 | 1019.2 |
| 20260830201545 | 71 | 315 | 2.0 | 8.0 | 0.00 | 0.00 | 0.00 | 53 | 1019.3 |
| 20260830200057 | 71 | 122 | 1.0 | 7.0 | 0.00 | 0.00 | 0.00 | 53 | 1019.5 |
| 20260830194548 | 68 | 122 | 3.0 | 7.0 | 0.00 | 0.00 | 0.00 | 60 | 1019.7 |
| 20260830193037 | 68 | 127 | 2.0 | 7.0 | 0.00 | 0.00 | 0.00 | 60 | 1019.9 |
| 20260830191537 | 68 | 159 | 2.0 | 6.0 | 0.00 | 0.00 | 0.00 | 60 | 1020.1 |
| 20260830190035 | 66 | 230 | 3.0 | 6.0 | 0.00 | 0.00 | 0.00 | 63 | 1020.2 |
| 20260830184528 | 66 | 189 | 2.0 | 8.0 | 0.00 | 0.00 | 0.00 | 62 | 1020.3 |
| 20260830183026 | 65 | 88 | 1.0 | 4.0 | 0.00 | 0.00 | 0.00 | 63 | 1020.4 |
| 20260830181523 | 64 | 344 | 3.0 | 5.0 | 0.00 | 0.00 | 0.00 | 66 | 1020.5 |
| 20260830180021 | 64 | 153 | 2.0 | 5.0 | 0.00 | 0.00 | 0.00 | 67 | 1020.4 |
| 20260830174517 | 62 | 219 | 1.0 | 4.0 | 0.00 | 0.00 | 0.00 | 70 | 1020.6 |
| 20260830173019 | 62 | 155 | 2.0 | 5.0 | 0.00 | 0.00 | 0.00 | 72 | 1020.6 |
| 20260830171516 | 61 | 226 | 2.0 | 4.0 | 0.00 | 0.00 | 0.00 | 74 | 1020.6 |
| 20260830170013 | 60 | 203 | 2.0 | 4.0 | 0.00 | 0.00 | 0.00 | 76 | 1020.8 |
| 20260830164515 | 60 | 189 | 2.0 | 5.0 | 0.00 | 0.00 | 0.00 | 76 | 1020.7 |
| 20260830163010 | 60 | 153 | 2.0 | 5.0 | 0.00 | 0.00 | 0.00 | 78 | 1020.9 |
| 20260830161507 | 58 | 159 | 1.0 | 4.0 | 0.00 | 0.00 | 0.00 | 79 | 1020.8 |
| 20260830160003 | 57 | 132 | 2.0 | 4.0 | 0.00 | 0.00 | 0.00 | 80 | 1020.9 |
| 20260830154603 | 56 | 173 | 1.0 | 2.0 | 0.00 | 0.00 | 0.00 | 81 | 1021.0 |
| 20260830153055 | 54 | 227 | 0.0 | 2.0 | 0.00 | 0.00 | 0.00 | 80 | 1021.1 |
| 20260830151553 | 52 | 232 | 0.0 | 0.0 | 0.00 | 0.00 | 0.00 | 72 | 1021.1 |
| 20260830150108 | 50 | 232 | 0.0 | 0.0 | 0.00 | 0.00 | 0.00 | 68 | 1021.1 |
| 20260830144551 | 48 | 355 | 0.0 | 0.0 | 0.00 | 0.00 | 0.00 | 70 | 1021.3 |
| 20260830143050 | 46 | 355 | 0.0 | 0.0 | 0.00 | 0.00 | 0.00 | 72 | 1021.1 |
| 20260830141549 | 46 | 355 | 0.0 | 0.0 | 0.00 | 0.00 | 0.00 | 73 | 1021.0 |
| 20260830140048 | 46 | 355 | 0.0 | 0.0 | 0.00 | 0.00 | 0.00 | 73 | 1021.1 |
| 20260830134546 | 46 | 355 | 0.0 | 0.0 | 0.00 | 0.00 | 0.00 | 74 | 1021.0 |
| 20260830133044 | 46 | 355 | 0.0 | 0.0 | 0.00 | 0.00 | 0.00 | 74 | 1020.9 |
| 20260830131555 | 46 | 355 | 0.0 | 0.0 | 0.00 | 0.00 | 0.00 | 74 | 1020.8 |
| 20260830130045 | 46 | 355 | 0.0 | 0.0 | 0.00 | 0.00 | 0.00 | 75 | 1020.9 |
| 20260830124540 | 46 | 355 | 0.0 | 0.0 | 0.00 | 0.00 | 0.00 | 75 | 1020.8 |
| 20260830123038 | 46 | 355 | 0.0 | 0.0 | 0.00 | 0.00 | 0.00 | 74 | 1020.7 |
| 20260830121539 | 47 | 355 | 0.0 | 0.0 | 0.00 | 0.00 | 0.00 | 75 | 1020.6 |
| 20260830120036 | 47 | 355 | 0.0 | 0.0 | 0.00 | 0.03 | 0.00 | 75 | 1020.5 |
| 20260830114541 | 47 | 355 | 0.0 | 0.0 | 0.00 | 0.03 | 0.00 | 75 | 1020.6 |
| 20260830113033 | 47 | 355 | 0.0 | 0.0 | 0.00 | 0.03 | 0.00 | 76 | 1020.6 |
| 20260830111534 | 47 | 355 | 0.0 | 0.0 | 0.00 | 0.03 | 0.00 | 76 | 1020.5 |
| 20260830110032 | 47 | 355 | 0.0 | 1.0 | 0.00 | 0.03 | 0.00 | 77 | 1020.6 |
| 20260830104530 | 47 | 355 | 0.0 | 0.0 | 0.00 | 0.03 | 0.00 | 76 | 1020.5 |
| 20260830103029 | 47 | 355 | 0.0 | 1.0 | 0.00 | 0.03 | 0.00 | 77 | 1020.4 |
| 20260830101528 | 48 | 355 | 0.0 | 0.0 | 0.00 | 0.03 | 0.00 | 77 | 1020.3 |
| 20260830100025 | 48 | 355 | 0.0 | 0.0 | 0.00 | 0.03 | 0.00 | 78 | 1020.5 |
| 20260830094523 | 48 | 355 | 0.0 | 0.0 | 0.00 | 0.03 | 0.00 | 78 | 1020.4 |
| 20260830093022 | 49 | 355 | 0.0 | 0.0 | 0.00 | 0.03 | 0.00 | 78 | 1020.4 |
| 20260830091537 | 49 | 355 | 0.0 | 0.0 | 0.00 | 0.03 | 0.00 | 78 | 1020.4 |
| 20260830090021 | 49 | 355 | 0.0 | 0.0 | 0.00 | 0.03 | 0.00 | 79 | 1020.4 |
| 20260830084517 | 50 | 355 | 0.0 | 1.0 | 0.00 | 0.03 | 0.00 | 80 | 1020.5 |
| 20260830083015 | 50 | 355 | 0.0 | 0.0 | 0.00 | 0.03 | 0.00 | 80 | 1020.5 |
| 20260830081517 | 51 | 355 | 0.0 | 0.0 | 0.00 | 0.03 | 0.00 | 80 | 1020.5 |
| 20260830080011 | 51 | 355 | 0.0 | 0.0 | 0.00 | 0.03 | 0.00 | 80 | 1020.5 |
| 20260830074520 | 51 | 355 | 0.0 | 0.0 | 0.00 | 0.03 | 0.00 | 80 | 1020.4 |
| 20260830073006 | 52 | 355 | 0.0 | 0.0 | 0.00 | 0.03 | 0.00 | 81 | 1020.4 |
| 20260830071505 | 52 | 355 | 0.0 | 1.0 | 0.00 | 0.03 | 0.00 | 81 | 1020.4 |
| 20260830070005 | 53 | 355 | 0.0 | 2.0 | 0.00 | 0.03 | 0.03 | 81 | 1020.3 |
| 20260830064502 | 53 | 355 | 1.0 | 2.0 | 0.00 | 0.03 | 0.03 | 80 | 1020.3 |